Probability
0 0 0 0 0 0 0 0 0 0 0 0 0 0 0 0 0 0 0 0 0 0 0 0 0 0 0 0 0 0 0 0 0 0 0 0 0 0 0 0 0 0 0
0 0 0 0 0 0 0 0 0 0 0 0 0 0 0 0 0 0 0 0 0 0 0 0 0 0 0 0 0 0 0 0 0 0 0 0 0 0 0 0 0 0 0
0 0 0 0 0 0 0 0 0 0 0 0 0 0 0 0 0 0 0 0 0 0 0 0 0 0 0 0 0 0 0 0 0 0 0 0 0 0 0 0 0 0 0
0 0 0 0 0 0 0 0 0 0 0 0 0 0 0 0 0 0 0 0 0 0 0 0 0 0 0 0 0 0 0 0 0 0 0 0 0 0 0 0 0 0 0
0 0 0 0 0 0 0 0 0 0 0 0 0 0 0 0 0 0 0 0 0 0 0 0 0 0 0 0 0 0 0 0 0 0 0 0 0 0 0 0 0 0 0
0 0 0 0 0 0 0 0 0 0 0 0 0 0 0 0 0 0 0 0 0 0 0 0 0 0 0 0 0 0 0 0 0 0 0 0 0 0 0 0 0 0 0
0 0 0 0 0 0 0 0 0 0 0 0 0 0 0 0 0 0 0 0 0 0 0 0 0 0 0 0 0 0 0 0 0 0 0 0 0 0 0 0 0 0 0
0 0 0 0 0 0 0 0 0 0 0 0 0 0 0 0 0 0 0 0 0 0 0 0 0 0 0 0 0 0 0 0 0 0 0 0 0 0 0 0 0 0 0
0 0 0 0 0 0 0 0 0 0 0 0 0 0 0 0 0 0 0 0 0 0 0 0 0 0 0 0 0 0 0 0 0 0 0 0 0 0 0 0 0 0 0
0 0 0 0 0 0 0 0 0 0 0 0 0 0 0 0 0 0 0 0 0 0 0 0 0 0 0 0 0 0 0 0 0 0 0 0 0 0 0 0 0 0 0
0 0 0 0 0 0 0 0 0 0 0 0 0 0 0 0 0 0 0 0 0 0 0 0 0 0 0 0 0 0 0 0 0 0 0 0 0 0 0 0 0 0 0
0 0 0 0 0 0 0 0 0 0 0 0 0 0 0 0 0 0 0 0 0 0 0 0 0 0 0 0 0 0 0 0 0 0 0 0 0 0 0 0 0 0 0
0 0 0 0 0 0 0 0 0 0 0 0 0 0 0 0 0 0 0 0 0 0 0 0 0 0 0 0 0 0 0 0 0 0 0 0 0 0 0 0 0 0 0
0 0 0 0 0 0 0 0 0 0 0 0 0 0 0 0 0 0 0 0 0 0 0 0 0 0 0 0 0 0 0 0 0 0 0 0 0 0 0 0 0 0 0
0 0 0 0 0 0 0 0 0 0 0 0 0 0 0 0 0 0 0 0 0 0 0 0 0 0 0 0 0 0 0 0 0 0 0 0 0 0 0 0 0 0 0
0 0 0 0 0 0 0 0 0 0 0 0 0 0 0 0 0 0 0 0 0 0 0 0 0 0 0 0 0 0 0 0 0 0 0 0 0 0 0 0 0 0 0
0 0 0 0 0 0 0 0 0 0 0 0 0 0 0 0 0 0 0 0 0 0 0 0 0 0 0 0 0 0 0 0 0 0 0 0 0 0 0 0 0 0 0
0 0 0 0 0 0 0 0 0 0 0 0 0 0 0 0 0 0 0 0 0 0 0 0 0 0 0 0 0 0 0 0 0 0 0 0 0 0 0 0 0 0 0
0 0 0 0 0 0 0 0 0 0 0 0 0 0 0 0 0 0 0 0 0 0 0 0 0 0 0 0 0 0 0 0 0 0 0 0 0 0 0 0 0 0 0
0 0 0 0 0 0 0 0 0 0 0 0 0 0 0 0 0 0 0 0 0 0 0 0 0 0 0 0 0 0 0 0 0 0 0 0 0 0 0 0 0 0 0
0 0 0 0 0 0 0 0 0 0 0 0 0 0 0 0 0 0 0 0 0 0 0 0 0 0 0 0 0 0 0 0 0 0 0 0 0 0 0 0 0 0 0
0 0 0 0 0 0 0 0 0 0 0 0 0 0 0 0 0 0 0 0 0 0 0 0 0 0 0 0 0 0 0 0 0 0 0 0 0 0 0 0 0 0 0
0 0 0 0 0 0 0 0 0 0 0 0 0 0 0 0 0 0 0 0 0 0 0 0 0 0 0 0 0 0 0 0 0 0 0 0 0 0 0 0 0 0 0
0 0 0 0 0 0 0 0 0 0 0 0 0 0 0 0 0 0 0 0 0 0 0 0 0 0 0 0 0 0 0 0 0 0 0 0 0 0 0 0 0 0 0
0 0 0 0 0 0 0 0 0 0 0 0 0 0 0 0 0 0 0 0 0 0 0 0 0 0 0 0 0 0 0 0 0 0 0 0 0 0 0 0 0 0 0
0 0 0 0 0 0 0 0 0 0 0 0 0 0 0 0 0 0 0 0 0 0 0 0 0 0 0 0 0 0 0 0 0 0 0 0 0 0 0 0 0 0 0
Height
5750 5751 5752 5754 5756 5759 5762 5764 5765 5766 5766 5767 5768 5769 5770 5770 5770 5769 5768 5767 5766 5764 5764 5763 5761 5759 5756 5754 5751 5749 5749 5749 5749 5749 5749 5750 5750 5751 5753 5753 5754 5755 5756
5739 5741 5743 5746 5748 5751 5754 5756 5757 5757 5758 5758 5759 5760 5761 5761 5761 5761 5759 5759 5758 5757 5756 5756 5755 5753 5751 5749 5746 5743 5741 5741 5741 5741 5741 5742 5742 5743 5744 5746 5747 5748 5749
5730 5732 5734 5737 5740 5743 5746 5748 5749 5750 5750 5750 5750 5751 5752 5752 5752 5751 5751 5750 5750 5749 5748 5747 5747 5746 5746 5744 5742 5739 5737 5735 5734 5734 5734 5735 5735 5736 5737 5738 5740 5741 5743
5720 5723 5726 5729 5733 5735 5738 5740 5741 5742 5742 5742 5743 5743 5743 5742 5742 5742 5742 5741 5740 5740 5739 5738 5738 5737 5737 5737 5735 5734 5733 5731 5729 5729 5729 5729 5729 5730 5730 5731 5733 5735 5737
5712 5716 5720 5723 5726 5728 5730 5731 5733 5734 5734 5734 5734 5734 5733 5733 5733 5734 5733 5732 5732 5731 5730 5729 5729 5728 5728 5728 5728 5727 5727 5726 5725 5724 5724 5724 5724 5725 5726 5727 5728 5729 5731
5708 5711 5714 5717 5719 5721 5722 5724 5724 5725 5725 5725 5725 5725 5725 5725 5725 5725 5725 5724 5724 5723 5722 5722 5721 5720 5719 5719 5719 5719 5719 5718 5718 5718 5718 5718 5719 5719 5720 5722 5723 5724 5726
5704 5706 5709 5711 5712 5713 5714 5715 5716 5716 5717 5717 5717 5716 5717 5717 5717 5717 5717 5717 5716 5715 5715 5714 5713 5712 5711 5711 5710 5710 5710 5710 5710 5711 5710 5710 5711 5712 5713 5715 5717 5718 5720
5699 5701 5703 5704 5705 5705 5706 5707 5707 5708 5708 5708 5709 5709 5710 5710 5711 5710 5710 5710 5709 5708 5707 5706 5705 5704 5703 5702 5701 5700 5700 5700 5700 5701 5701 5701 5702 5702 5704 5706 5708 5710 5711
5696 5697 5697 5697 5698 5698 5699 5699 5700 5700 5701 5701 5702 5703 5703 5704 5704 5703 5703 5703 5702 5701 5699 5698 5697 5697 5695 5694 5693 5692 5691 5690 5690 5690 5690 5691 5691 5692 5693 5695 5698 5700 5702
5692 5692 5691 5691 5691 5691 5692 5693 5694 5694 5695 5696 5697 5697 5698 5697 5696 5696 5696 5695 5695 5694 5693 5691 5690 5689 5687 5686 5684 5683 5682 5681 5680 5679 5679 5679 5679 5680 5682 5683 5685 5688 5690
5688 5687 5686 5685 5684 5685 5686 5688 5689 5690 5691 5692 5692 5692 5692 5691 5690 5690 5690 5689 5688 5687 5686 5685 5683 5681 5680 5678 5676 5674 5673 5672 5671 5670 5669 5668 5668 5668 5669 5670 5672 5674 5677
5685 5683 5682 5681 5681 5682 5683 5684 5685 5686 5687 5687 5688 5688 5687 5686 5686 5685 5684 5683 5682 5680 5679 5677 5675 5673 5671 5670 5668 5666 5665 5664 5663 5662 5661 5660 5659 5658 5658 5659 5659 5661 5663
5683 5681 5679 5679 5679 5679 5680 5680 5681 5682 5683 5683 5683 5683 5683 5683 5682 5681 5680 5679 5677 5675 5673 5670 5667 5665 5662 5660 5658 5657 5655 5654 5653 5652 5651 5650 5650 5649 5649 5649 5649 5649 5650
5681 5679 5678 5677 5677 5677 5677 5677 5678 5679 5679 5679 5680 5680 5679 5679 5678 5677 5676 5674 5672 5669 5666 5663 5660 5657 5654 5651 5649 5647 5645 5643 5641 5640 5639 5639 5639 5639 5639 5639 5639 5639 5639
5678 5677 5676 5675 5675 5675 5675 5675 5676 5676 5676 5676 5676 5676 5676 5675 5674 5673 5671 5669 5666 5663 5659 5655 5652 5648 5645 5643 5640 5638 5635 5633 5631 5629 5628 5628 5627 5627 5628 5628 5628 5629 5629
5674 5674 5673 5673 5672 5672 5672 5672 5673 5673 5673 5673 5673 5672 5671 5670 5669 5667 5665 5662 5659 5655 5651 5647 5644 5641 5638 5635 5632 5630 5627 5625 5622 5620 5619 5618 5617 5617 5617 5617 5617 5617 5617
5670 5669 5669 5669 5669 5668 5668 5668 5668 5669 5669 5669 5668 5667 5667 5666 5664 5662 5660 5657 5653 5649 5646 5642 5639 5636 5632 5629 5626 5622 5619 5616 5614 5612 5610 5608 5607 5606 5606 5605 5605 5604 5605
5665 5664 5664 5664 5664 5664 5664 5663 5663 5664 5664 5664 5664 5663 5662 5661 5659 5657 5655 5652 5648 5645 5641 5638 5634 5630 5627 5623 5620 5616 5612 5609 5606 5603 5601 5599 5597 5596 5594 5593 5592 5591 5591
5659 5659 5659 5659 5659 5659 5658 5658 5659 5659 5659 5659 5659 5659 5658 5656 5655 5653 5651 5648 5644 5640 5637 5633 5629 5625 5621 5617 5613 5609 5606 5602 5599 5596 5593 5590 5588 5586 5584 5581 5578 5577 5576
5652 5652 5652 5652 5653 5653 5653 5653 5653 5654 5654 5654 5654 5653 5652 5652 5650 5649 5646 5643 5640 5636 5633 5629 5624 5620 5615 5611 5607 5602 5599 5595 5592 5588 5585 5582 5579 5577 5574 5571 5567 5565 5563
5643 5644 5645 5645 5646 5646 5647 5647 5647 5647 5647 5647 5647 5647 5646 5646 5645 5643 5641 5639 5635 5632 5628 5624 5620 5615 5610 5606 5601 5596 5592 5588 5585 5581 5578 5575 5571 5568 5565 5562 5559 5556 5554
5635 5636 5636 5637 5638 5639 5639 5640 5640 5640 5640 5640 5640 5640 5640 5640 5639 5638 5637 5634 5631 5628 5624 5620 5616 5612 5607 5602 5597 5591 5586 5582 5578 5574 5571 5567 5564 5560 5556 5553 5550 5548 5545
5628 5628 5627 5628 5630 5632 5632 5632 5633 5633 5633 5633 5634 5634 5635 5635 5634 5634 5632 5630 5627 5623 5620 5616 5612 5608 5603 5597 5592 5586 5581 5576 5571 5567 5563 5559 5556 5552 5548 5544 5541 5538 5536
5621 5621 5620 5621 5622 5624 5625 5626 5626 5627 5627 5627 5628 5629 5629 5629 5629 5629 5627 5625 5622 5618 5615 5611 5607 5602 5597 5592 5586 5580 5575 5569 5564 5559 5555 5551 5547 5543 5539 5535 5532 5529 5527
5614 5615 5615 5615 5616 5617 5618 5619 5620 5621 5621 5622 5622 5623 5624 5624 5624 5623 5621 5618 5615 5612 5609 5605 5601 5596 5591 5585 5579 5573 5567 5561 5556 5551 5546 5543 5539 5535 5531 5527 5523 5520 5518
5606 5607 5608 5609 5610 5611 5612 5613 5614 5615 5616 5616 5617 5617 5617 5617 5617 5615 5614 5611 5609 5606 5603 5599 5595 5590 5584 5578 5572 5566 5560 5554 5549 5544 5539 5535 5531 5527 5522 5518 5514 5511 5508
Wind_Speed
35 34 33 31 30 30 30 32 35 37 37 36 35 34 32 31 30 29 28 26 25 23 23 23 22 22 22 23 24 27 33 35 34 33 33 32 33 32 31 32 33 33 30
32 32 31 32 30 30 32 33 33 31 30 30 31 31 32 32 31 30 29 27 25 24 24 24 24 24 25 23 21 19 23 28 29 29 29 28 28 29 29 28 26 25 22
30 31 31 31 29 29 31 32 32 31 30 31 32 32 31 31 30 30 30 29 27 26 26 27 28 28 27 25 22 20 19 19 19 21 23 25 25 25 27 26 22 19 19
32 31 31 29 28 28 29 30 30 30 31 31 31 32 31 30 29 29 29 29 28 27 27 29 30 30 29 28 26 24 23 21 19 19 19 19 20 20 21 22 21 19 20
23 24 25 25 25 26 27 29 30 30 31 31 30 30 29 29 28 28 27 27 28 28 28 29 29 29 29 29 29 28 27 26 24 23 22 21 20 18 19 21 22 21 22
16 18 20 23 25 27 28 30 31 31 31 30 29 28 28 29 29 27 25 26 27 27 27 28 28 28 28 29 30 30 29 29 29 28 28 26 25 23 22 22 22 23 24
18 20 23 25 27 29 30 31 31 31 31 30 29 27 28 29 28 27 25 25 25 25 25 25 26 27 27 28 29 31 31 31 31 32 32 32 30 28 27 26 26 26 28
20 21 23 23 24 26 27 28 29 29 28 27 26 26 26 26 25 24 23 24 24 24 24 24 24 25 25 27 28 29 30 31 32 34 34 35 35 34 32 31 31 31 30
17 19 21 22 24 25 26 28 28 27 26 24 22 21 21 21 21 21 21 23 23 23 23 22 23 23 24 25 27 28 30 31 33 35 37 38 39 38 38 37 35 34 34
16 18 21 22 23 23 24 24 23 20 19 17 16 16 17 16 16 16 17 18 19 19 19 20 21 22 23 23 24 25 26 28 31 34 36 38 39 41 41 41 40 39 39
12 14 14 15 16 17 18 18 16 13 12 13 13 12 12 13 14 15 16 17 18 19 20 21 22 23 23 24 24 25 25 26 27 29 31 33 34 36 39 43 44 43 42
7 7 6 5 6 9 12 14 14 13 13 12 11 11 13 14 15 15 16 17 18 20 22 23 24 25 25 26 27 28 29 30 30 31 31 31 31 32 33 36 39 42 43
6 5 3 1 2 4 7 9 10 10 11 11 12 13 14 14 13 13 15 17 19 21 23 26 28 29 30 31 31 32 32 33 33 33 34 34 33 33 33 32 33 35 38
7 5 3 1 2 4 5 7 8 9 10 12 13 12 12 13 13 15 17 19 21 23 25 27 29 30 31 31 31 31 31 31 31 31 31 33 34 35 34 33 32 31 32
10 9 7 6 6 7 8 9 10 11 12 12 12 13 13 14 15 16 17 19 22 24 26 26 26 26 26 26 26 26 27 28 29 29 29 30 31 32 33 34 34 34 33
13 13 12 12 12 12 13 13 13 13 13 14 14 14 15 15 16 17 18 21 23 24 25 25 25 24 24 23 23 24 25 26 27 28 29 30 30 31 32 33 34 35 36
15 15 15 15 15 16 16 15 15 15 15 15 15 15 15 16 16 17 19 21 22 23 23 23 24 24 24 24 25 25 25 25 25 25 26 27 29 30 32 34 35 36 37
17 18 18 18 17 17 17 17 17 17 17 17 16 16 16 15 15 17 19 21 22 23 24 25 25 26 26 27 27 27 27 26 26 26 26 26 26 28 29 32 35 38 39
20 20 19 19 19 18 17 17 17 18 18 17 17 17 16 14 14 16 18 21 23 24 25 26 27 28 29 29 30 30 29 28 28 28 27 27 28 29 30 32 32 34 37
23 22 20 20 20 20 19 18 18 18 18 17 16 15 14 13 14 16 18 21 23 24 25 26 27 27 28 30 31 30 29 28 27 27 27 26 27 27 28 29 28 29 30
23 22 22 21 21 21 21 20 19 18 17 17 16 14 13 13 14 17 20 23 24 24 25 25 26 26 27 28 29 29 27 26 25 25 25 26 26 26 25 25 25 25 25
19 21 22 22 22 21 21 21 20 18 17 17 16 14 13 14 16 19 21 23 22 22 22 23 24 26 27 27 27 27 26 26 25 25 26 26 26 26 26 26 24 24 24
17 18 20 21 21 21 21 20 19 17 16 16 16 14 14 15 17 20 22 23 21 21 23 25 27 29 30 30 29 27 27 26 27 27 27 27 27 27 27 26 25 24 23
15 15 16 18 20 20 20 19 18 17 16 16 16 15 15 16 18 20 22 22 22 24 27 29 30 31 33 33 32 30 29 29 28 28 27 26 27 27 27 27 25 24 23
16 14 13 14 17 19 19 19 18 16 15 15 17 17 17 17 18 20 21 21 23 25 28 30 32 34 36 37 36 33 32 32 32 31 29 28 28 28 28 27 26 26 26
20 18 14 14 15 18 18 18 18 17 15 15 16 18 19 19 19 19 20 22 24 26 28 31 34 36 38 38 38 36 35 35 34 32 30 29 28 29 28 28 27 26 27
Wind_Direction
263 262 259 255 252 249 251 260 267 270 270 271 275 277 279 281 281 279 279 281 279 273 272 277 283 291 296 298 292 275 264 259 258 258 257 257 259 260 252 248 243 239 236
252 252 251 250 251 254 260 266 269 269 268 270 273 274 276 278 277 275 275 276 277 273 268 269 277 286 294 300 303 292 272 259 256 256 256 256 255 248 239 239 245 243 239
236 237 238 240 244 253 262 266 267 268 269 270 271 271 272 274 275 274 273 273 273 271 267 266 269 276 284 288 291 294 290 276 265 263 262 259 253 245 239 238 241 243 249
225 226 229 233 239 249 259 264 266 267 267 266 267 268 269 271 272 271 270 270 270 269 266 265 267 271 274 277 278 278 279 280 280 280 278 270 263 255 249 245 244 246 252
223 226 233 239 244 250 256 261 263 263 263 264 266 268 269 270 270 269 269 269 269 267 265 265 266 268 269 271 272 271 269 269 271 274 275 273 268 263 259 256 256 256 256
235 240 247 250 251 252 256 258 261 263 264 264 264 266 268 270 271 271 269 268 268 267 266 266 266 267 268 268 268 268 267 266 264 265 267 267 266 263 259 257 255 254 253
251 253 255 256 255 255 255 258 261 263 264 265 264 266 269 270 269 267 266 267 269 270 271 272 271 269 269 268 267 267 266 265 264 263 263 263 263 261 258 254 252 249 249
251 253 256 259 261 260 259 260 262 265 265 263 263 266 268 268 268 268 269 270 271 273 274 274 272 271 270 269 268 268 268 267 265 263 262 261 261 261 258 255 250 248 247
254 258 262 265 265 263 260 260 262 262 261 260 263 267 271 272 273 273 273 271 272 273 273 273 274 273 272 271 270 269 268 268 266 265 264 262 260 258 257 255 250 245 242
266 268 269 269 266 262 259 258 256 256 256 258 263 268 271 277 281 281 280 279 278 277 276 276 276 276 275 274 273 271 268 266 265 264 263 262 261 259 257 255 253 248 243
287 283 280 274 266 256 249 247 248 253 256 260 265 270 280 291 296 293 291 291 290 287 286 284 282 281 281 279 277 274 270 267 265 265 265 265 264 263 260 258 255 253 251
324 320 310 288 256 240 238 241 246 251 255 263 270 279 289 295 296 291 291 295 297 296 295 294 293 291 288 285 281 278 275 272 269 266 264 263 265 266 267 266 264 260 256
339 351 4 45 201 220 228 238 245 251 259 268 279 289 294 296 295 293 293 296 298 297 296 294 293 292 291 289 287 284 281 278 275 271 266 263 262 264 267 270 270 267 262
313 321 332 318 241 249 256 261 266 269 272 278 285 290 295 298 297 296 296 299 301 301 299 296 295 294 295 295 294 291 287 283 279 275 270 265 262 261 262 265 268 269 268
293 292 292 286 275 271 273 275 276 276 276 277 282 288 292 294 294 296 299 304 307 307 307 307 307 306 305 303 300 295 290 285 280 275 272 268 265 262 261 261 262 263 263
291 288 285 283 280 278 278 278 279 280 282 284 287 291 295 297 298 300 305 311 315 318 320 321 320 319 317 315 312 306 299 292 286 280 275 271 268 266 264 263 262 261 260
290 287 283 280 278 278 278 279 281 284 288 291 293 294 295 298 299 302 310 320 325 328 327 326 326 325 324 323 320 317 313 307 301 295 289 282 276 271 268 266 264 261 259
282 282 279 277 276 276 278 280 284 287 289 289 289 287 288 291 296 303 313 326 333 334 330 326 324 324 323 323 322 320 317 314 311 307 303 297 291 286 282 277 271 265 261
273 274 273 272 271 272 273 276 281 285 287 288 286 284 285 287 294 305 318 331 336 335 331 327 323 321 320 320 318 316 312 310 308 307 305 302 298 294 293 291 283 273 265
264 267 267 264 264 264 266 270 276 281 284 285 285 285 284 285 295 309 321 330 333 332 332 331 328 325 323 321 319 316 313 310 309 307 306 305 304 300 298 297 293 284 274
258 261 264 261 259 260 262 265 271 277 280 281 285 289 290 292 301 311 321 327 331 333 335 336 335 333 329 326 323 319 316 314 313 312 311 310 310 308 304 301 298 293 285
259 260 262 260 256 257 260 263 267 272 274 276 281 287 290 293 298 304 313 321 327 333 337 340 342 342 339 334 331 327 321 316 314 312 311 312 313 311 308 304 300 295 290
265 265 263 256 251 253 258 262 266 269 269 270 275 280 284 288 292 297 303 312 318 324 328 331 335 340 341 339 335 332 329 325 320 315 312 311 313 313 312 308 304 299 294
270 269 266 259 254 254 258 262 264 264 265 267 269 273 278 283 288 291 297 305 311 317 321 325 331 337 340 340 338 335 333 331 328 322 316 314 315 316 315 312 308 303 299
267 268 268 263 258 256 258 260 260 258 259 263 266 269 273 278 282 286 295 304 310 314 320 326 330 333 335 337 337 336 334 333 331 327 321 317 317 318 317 314 310 306 302
263 265 267 269 265 261 258 258 257 256 255 259 265 269 272 274 277 284 296 306 311 314 320 326 329 330 332 335 337 337 335 333 331 327 323 320 318 317 316 313 310 307 304